SCP
0 0 0 0 0 0 0 0 0 0 0 0 0 0 0 0 0 0 0 0 0 0 0 0 0 0 0 0 0 0 0 0 0 0 0 0 0 0 0 0 0 0 0 0 0 0 0
0 0 0 0 0 0 0 0 0 0 0 0 0 0 0 0 0 0 0 0 0 0 0 0 0 0 0 0 0 0 0 0 0 0 0 0 0 0 0 0 0 0 0 0 0 0 0
0 0 0 0 0 0 0 0 0 0 0 0 0 0 0 0 0 0 0 0 0 0 0 0 0 0 0 0 0 0 0 0 0 0 0 0 0 0 0 0 0 0 0 0 0 0 0
0 0 0 0 0 0 0 0 0 0 0 0 0 0 0 0 0 0 0 0 0 0 0 0 0 0 0 0 0 0 0 0 0 0 0 0 0 0 0 0 0 0 0 0 0 0 0
0 0 0 0 0 0 0 0 0 0 0 0 0 0 0 0 0 0 0 0 0 0 0 0 0 0 0 0 0 0 0 0 0 0 0 0 0 0 0 0 0 0 0 0 0 0 0
0 0 0 0 0 0 0 0 0 0 0 0 0 0 0 0 0 0 0 0 0 0 0 0 0 0 0 0 0 0 0 0 0 0 0 0 0 0 0 0 0 0 0 0 0 0 0
0 0 0 0 0 0 0 0 0 0 0 0 0 0 0 0 0 0 0 0 0 0 0 0 0 0 0 0 0 0 0 0 0 0 0 0 0 0 0 0 0 0 0 0 0 0 0
0 0 0 0 0 0 0 0 0 0 0 0 0 0 0 0 0 0 0 0 0 0 0 0 0 0 0 0 0 0 0 0 0 0 0 0 0 0 0 0 0 0 0 0 0 0 0
0 0 0 0 0 0 0 0 0 0 0 0 0 0 0 0 0 0 0 0 0 0 -0 0 0 0 0 0 0 0 0 0 0 0 0 0 0 0 0 0 0 0 0 0 0 0 0
0 0 0 0 0 0 0 0 0 0 0 0 0 0 0 0 0 0 0 0 0 0 0 0 0 0 0 0 0 0 0 0 0 0 0 0 0 0 0 0 0 0 0 0 0 0 0
0 0 0 0 0 0 0 0 0 0 0 0 0 0 0 0 0 0 0 0 0 0 0 0 0 0 0 0 0 0 0 0 0 0 0 0 0 0 0 0 0 0 0 0 0 0 0
0 0 0 0 0 0 0 0 0 0 0 0 0 0 0 0 0 0 0 0 0 0 0 0 0 0 0 0 0 0 0 0 0 0 0 0 0 0 0 0 0 0 0 0 0 0 0
0 0 0 0 0 0 0 0 0 0 0 0 0 0 0 0 0 0 0 0 0 0 0 0 0 0 0 0 0 0 0 0 0 0 0 0 0 0 0 0 0 0 0 0 0 0 0
0 0 0 0 0 0 0 0 0 0 0 0 0 0 0 0 0 0 0 0 0 0 0 0 0 0 0 0 0 0 0 0 0 0 0 0 0 0 0 0 0 0 0 0 0 0 0
0 0 0 0 0 0 0 0 0 0 0 0 0 0 0 0 0 0 0 0 0 0 0 0 0 0 0 0 0 0 0 0 0 0 0 0 0 0 0 0 0 0 0 0 0 0 0
0 0 0 0 0 0 0 0 0 0 0 0 0 0 0 0 0 0 0 0 0 0 0 0 0 0 0 0 0 0 0 0 0 0 0 0 0 0 0 0 0 0 0 0 0 0 0
0 0 0 0 0 0 0 0 0 0 0 0 0 0 0 0 0 0 0 0 0 0 0 0 0 0 0 0 0 0 0 0 0 0 0 0 0 0 0 0 0 0 0 0 0 0 0
0 0 0 0 0 0 0 0 0 0 0 0 0 0 0 0 0 0 0 0 0 0 0 0 0 0 0 0 0 0 0 0 0 0 0 0 0 0 0 0 0 0 0 0 0 0 0
0 0 0 0 0 0 0 0 0 0 0 0 0 0 0 0 0 0 0 0 0 0 0 0 0 0 0 0 0 0 0 0 0 0 0 0 0 0 0 0 0 0 0 0 0 0 0
0 0 0 0 0 0 0 0 0 0 0 0 0 0 0 0 0 0 0 0 0 0 0 0 0 0 0 0 0 0 0 0 0 0 0 0 0 0 0 0 0 0 0 0 0 0 0
0 0 0 0 0 0 0 0 0 0 0 0 0 0 0 0 0 0 0 0 0 0 0 0 0 0 0 0 0 0 0 0 0 0 0 0 0 0 0 0 0 0 0 0 0 0 0
0 0 0 0 0 0 0 0 0 0 0 0 0 0 0 0 0 0 0 0 0 0 0 0 0 0 0 0 0 0 0 0 0 0 0 0 0 0 0 0 0 0 0 0 0 0 0
0 0 0 0 0 0 0 0 0 0 0 1 0 0 0 0 0 0 0 0 0 0 0 0 0 0 0 0 0 0 0 0 0 0 0 0 0 0 0 0 0 0 0 0 0 0 0
0 0 0 0 0 0 0 0 0 0 0 0 0 0 0 0 0 0 0 0 0 0 0 0 0 0 0 0 0 0 0 0 0 0 0 0 0 0 0 0 0 0 0 0 0 0 0
0 0 0 0 0 0 0 0 0 0 0 0 0 0 0 0 0 0 0 0 0 0 0 0 0 0 0 0 0 0 0 0 0 0 0 0 0 0 0 0 0 0 0 0 0 0 0
0 0 0 0 0 0 0 0 0 0 0 0 0 0 0 0 0 0 0 0 0 0 0 -0 0 0 0 0 0 0 0 0 0 0 0 0 0 0 0 0 0 0 -0 0 0 0 0
0 0 0 0 0 0 0 0 0 0 0 0 0 0 0 0 0 0 0 0 0 0 -0 0 -0 -0 -0 0 0 0 0 0 0 0 0 0 0 0 0 0 0 0 0 0 0 0 0
0 0 0 0 0 0 0 0 0 0 0 0 0 0 0 0 0 0 0 0 0 0 -0 -0 0 -0 -0 0 0 0 0 0 0 0 0 0 0 0 0 0 0 0 0 0 0 0 0
0 0 0 0 0 0 0 0 -0 0 0 0 0 0 0 0 0 0 0 0 0 0 0 0 0 0 0 0 0 0 0 0 0 0 0 0 0 0 0 0 0 0 0 0 0 0 0
Wind_Speed_500mb
41 40 31 27 31 33 30 28 33 37 29 28 36 41 43 43 40 40 41 45 47 43 36 28 21 15 12 11 17 17 12 10 13 22 23 25 31 34 27 30 17 31 13 21 19 11 11
41 42 38 31 34 34 33 31 30 26 32 37 36 41 41 47 46 41 42 46 47 49 39 28 22 13 11 15 17 14 10 11 17 24 22 22 21 20 20 11 27 7 37 18 13 17 12
15 17 19 21 25 29 32 32 31 33 35 35 31 33 40 47 48 46 43 45 48 47 35 23 20 15 17 21 16 13 12 13 20 26 22 25 16 16 8 8 4 2 11 24 24 17 9
27 22 18 19 21 23 29 32 40 44 41 36 35 33 36 45 53 46 42 47 50 41 27 17 13 11 13 20 23 15 12 12 20 27 23 24 17 11 1 8 7 11 10 15 15 17 11
36 35 32 28 26 27 26 27 28 36 41 47 50 46 39 45 53 45 44 46 48 29 18 9 10 11 11 11 18 19 17 12 15 21 22 22 17 9 9 9 9 17 12 27 11 17 6
27 28 30 37 37 34 32 31 33 35 37 45 52 53 49 43 56 49 50 43 34 23 10 6 11 8 14 6 15 20 19 23 10 19 16 11 11 12 14 17 13 11 17 12 19 15 17
29 34 30 28 32 39 40 39 38 39 41 42 50 56 58 55 49 47 51 40 21 9 10 23 16 11 7 13 15 17 22 24 14 16 14 13 14 24 28 32 25 12 13 14 6 7 7
31 28 29 33 35 35 39 43 42 40 42 44 47 47 52 56 45 41 37 12 14 20 26 34 35 29 23 19 8 18 26 21 17 19 14 9 24 21 6 7 14 18 19 21 4 7 6
25 26 26 29 29 32 34 34 40 42 45 49 52 56 46 44 40 33 22 16 23 26 14 17 16 14 14 27 11 20 34 12 18 25 27 18 3 8 12 14 18 19 21 10 7 7 16
26 26 29 32 34 34 33 33 36 38 42 45 54 57 57 36 4 9 7 11 22 24 10 10 9 8 12 13 10 21 32 11 8 22 19 21 13 14 12 19 18 19 4 4 4 7 7
29 30 33 33 34 36 40 41 43 38 36 39 44 52 52 18 16 8 9 13 16 8 11 9 6 7 11 15 12 8 22 8 14 14 10 9 16 17 15 4 16 4 8 5 2 6 8
27 29 31 36 36 37 39 42 42 43 42 44 46 46 47 26 16 17 16 11 10 6 18 4 7 11 12 16 10 11 10 5 4 7 2 6 3 4 3 11 2 20 11 6 2 4 7
30 30 31 31 35 35 40 43 45 47 48 48 49 45 42 32 15 10 7 3 4 13 5 6 8 11 17 16 15 16 20 20 14 12 17 7 8 7 10 10 10 9 8 3 5 6 7
32 33 34 32 37 37 40 42 46 48 51 51 46 44 41 32 16 22 5 5 18 5 13 3 3 8 13 17 12 17 13 19 31 11 6 18 13 22 21 6 7 21 6 6 11 8 3
31 37 32 38 34 38 38 40 42 47 52 59 58 39 34 16 16 24 15 16 14 11 8 12 6 6 9 12 6 16 18 13 15 29 15 9 7 4 3 2 4 12 14 6 9 3 4
38 39 35 39 37 39 38 39 40 43 50 57 52 36 21 21 21 23 10 31 12 14 6 8 13 12 10 10 14 18 19 11 12 22 11 4 6 4 7 5 5 6 6 6 4 9 11
39 39 34 36 37 39 36 38 41 43 45 51 38 21 10 22 21 18 21 23 16 40 9 9 7 7 9 11 14 10 6 7 10 12 9 11 11 9 9 19 20 9 7 7 4 5 7
42 38 41 41 39 42 40 39 40 40 42 33 20 9 15 26 10 11 19 9 15 33 18 27 11 13 10 11 11 12 13 8 12 19 17 12 6 12 12 5 5 23 11 17 8 12 5
46 44 44 47 46 43 42 38 37 35 28 29 23 28 24 18 11 18 14 23 33 36 33 8 19 26 17 12 5 12 9 4 13 15 12 13 8 9 5 5 7 13 23 13 4 2 14
46 48 47 48 49 48 46 42 39 37 24 26 13 7 12 11 22 20 28 28 37 41 26 46 23 14 4 12 14 11 9 4 3 5 1 16 8 12 19 8 6 11 25 32 17 9 11
47 49 50 53 51 51 48 47 47 39 35 22 11 10 12 9 15 20 27 20 38 17 20 12 13 15 13 12 11 12 11 7 7 6 3 5 12 18 22 7 3 11 12 30 35 25 20
45 45 45 49 52 53 55 49 42 41 35 38 16 10 15 29 30 35 30 17 24 27 8 23 32 29 24 30 14 4 13 12 9 14 15 5 7 6 8 14 10 15 25 25 34 31 31
48 50 51 52 54 53 56 53 47 44 40 38 24 31 27 28 28 26 30 38 33 33 30 22 12 23 19 13 52 31 19 13 10 17 23 17 13 9 9 2 9 26 44 37 18 16 25
54 53 54 56 57 58 59 57 55 51 50 60 51 32 24 24 25 31 39 43 32 35 37 47 47 22 11 48 55 5 8 6 21 15 20 9 12 10 3 8 13 5 5 24 47 38 40
57 58 58 62 67 70 70 65 63 59 61 62 55 41 31 22 39 43 45 43 55 52 35 38 49 47 44 31 10 9 7 5 9 11 21 12 7 7 8 12 17 16 10 11 17 22 38
57 60 63 66 67 69 69 73 67 63 61 63 58 44 38 31 37 63 39 37 22 18 23 27 41 33 22 8 9 14 17 12 14 12 7 11 5 7 7 9 12 1 3 5 2 16 16
65 68 70 72 79 77 73 71 71 64 62 56 51 55 39 33 51 40 20 22 25 19 13 18 13 7 32 9 14 20 22 3 18 24 15 12 7 18 13 12 12 8 10 22 6 6 4
75 76 78 81 84 82 74 71 71 64 65 58 59 55 45 26 31 21 31 24 28 19 18 12 17 16 10 8 10 14 8 15 9 19 19 22 19 11 8 12 18 14 10 14 1 7 5
85 88 87 87 86 73 60 62 56 58 55 54 62 50 37 35 29 26 38 55 65 60 26 17 18 19 7 5 6 9 10 7 11 11 12 14 11 13 19 15 2 36 3 33 7 7 7
Wind_Direction_500mb
292 307 307 304 307 303 310 316 312 312 303 311 318 320 326 330 332 338 342 343 340 335 322 306 290 278 281 256 256 258 261 231 204 178 178 172 184 199 211 212 200 233 222 240 242 236 251
295 298 310 322 317 311 316 323 312 302 301 296 308 314 314 321 325 332 335 336 333 330 319 299 277 262 247 249 251 255 243 211 186 174 175 179 195 202 235 228 214 313 230 232 226 233 242
345 7 359 345 333 326 314 298 300 305 297 309 298 302 315 321 317 326 327 333 330 325 317 300 259 244 246 256 250 255 228 204 191 180 179 185 186 197 178 175 214 231 222 230 226 220 243
360 349 330 343 340 330 329 302 291 293 296 308 296 298 309 310 311 320 328 332 329 323 315 299 236 239 257 249 234 234 216 194 189 194 191 191 178 150 181 117 162 214 240 226 149 186 187
8 10 7 358 349 342 334 328 321 298 288 287 292 295 300 301 301 315 327 331 324 323 312 285 236 222 255 247 220 221 201 178 169 179 181 176 156 156 147 195 201 207 251 217 170 202 190
3 358 2 359 2 359 349 334 323 325 306 287 283 287 292 296 299 302 326 332 319 316 309 308 233 241 244 230 216 208 194 172 145 144 135 170 181 197 208 198 222 224 223 231 229 178 219
359 359 359 354 351 348 354 355 355 350 345 328 304 294 287 290 295 297 322 343 326 273 285 265 266 249 274 221 196 192 183 174 157 195 196 194 213 207 207 216 257 304 272 254 135 131 255
2 355 356 355 354 349 346 347 347 346 346 348 341 323 295 288 282 293 315 321 324 302 299 278 251 237 232 206 194 211 183 189 194 203 173 176 235 234 99 199 224 243 251 250 103 178 247
347 343 343 342 344 347 350 345 343 344 341 343 346 344 325 299 294 290 291 292 326 333 270 266 229 226 212 206 221 198 188 201 220 207 202 210 80 134 177 181 198 224 237 242 297 220 241
332 339 339 331 335 331 322 331 334 332 336 335 337 340 345 325 352 281 273 300 330 344 282 240 203 198 177 165 224 195 189 205 218 226 207 235 132 176 193 206 206 232 145 179 236 276 273
340 328 332 342 336 332 325 323 315 332 324 330 338 338 344 345 310 319 280 315 343 343 290 103 155 168 171 195 129 172 191 196 230 192 201 167 173 181 205 211 187 112 141 146 211 263 313
336 342 339 341 346 347 343 341 333 326 324 326 323 325 335 334 268 274 261 295 336 222 243 186 148 176 173 201 179 130 161 176 127 179 222 64 358 215 65 88 262 142 136 137 195 256 243
330 330 329 337 346 344 346 345 344 345 335 320 318 316 316 319 263 227 229 262 219 229 334 236 207 190 211 189 189 195 185 186 190 179 207 162 182 147 155 122 130 206 167 208 222 191 249
319 322 317 326 330 334 336 338 338 343 342 338 313 312 318 307 245 225 247 221 220 239 226 136 160 200 208 174 218 193 195 217 217 223 180 196 226 177 176 243 198 186 223 228 236 217 111
313 310 311 315 318 318 325 331 336 335 337 336 335 320 317 315 218 219 193 216 223 189 187 167 103 199 214 225 246 197 216 230 216 199 214 213 198 69 24 107 321 165 210 36 101 92 267
315 315 312 308 315 311 318 323 329 328 334 335 346 327 314 336 210 211 214 228 223 235 167 163 212 191 202 189 196 202 206 207 211 198 229 185 262 205 136 218 126 262 143 147 205 205 234
312 305 302 308 308 308 310 321 324 326 330 334 345 327 306 346 205 238 224 223 240 251 219 222 245 205 224 183 213 204 245 172 191 165 186 174 224 127 158 206 177 162 209 230 298 229 242
306 305 310 299 299 302 307 313 316 319 322 332 335 309 323 325 277 241 244 233 254 279 308 258 260 260 211 192 195 227 231 232 158 153 168 200 235 220 199 77 298 230 235 195 221 186 228
300 297 295 297 299 301 303 305 312 308 320 323 305 294 293 288 255 246 269 266 266 265 270 248 254 239 225 198 225 210 234 105 163 178 179 173 222 229 212 209 185 217 209 227 88 304 203
295 293 296 297 296 296 296 297 300 296 299 312 291 298 291 236 260 286 296 291 265 244 268 255 275 257 241 231 223 211 209 169 157 222 113 139 225 239 228 51 99 201 206 200 203 204 177
303 303 303 303 301 300 295 295 294 288 281 277 237 249 254 279 294 306 314 307 290 302 273 251 218 211 212 248 202 214 192 181 161 178 172 226 244 216 247 246 232 263 226 206 212 224 219
305 304 302 301 301 298 292 293 289 280 279 263 247 248 257 262 275 286 280 288 310 312 287 296 252 262 241 245 260 318 183 189 191 168 171 237 244 204 265 200 200 267 250 217 220 234 252
299 296 301 299 297 292 290 291 285 273 264 257 243 264 259 269 271 268 267 275 277 291 294 268 319 348 306 345 319 284 256 165 166 172 186 175 205 187 251 153 222 268 241 223 205 213 208
299 300 298 298 297 293 289 285 279 276 264 262 250 254 260 265 259 260 265 262 277 278 273 289 297 279 298 321 324 170 138 191 168 183 151 201 192 184 115 169 225 329 298 235 215 229 217
299 301 301 300 298 293 288 283 278 269 262 259 240 235 250 261 260 264 255 262 273 272 271 273 281 271 289 298 291 219 173 173 196 185 175 189 195 166 203 217 316 289 182 175 193 251 229
298 299 299 298 298 296 292 285 278 268 259 257 248 244 249 250 250 256 265 251 255 275 279 248 278 287 258 239 238 245 212 190 189 163 170 157 294 246 169 225 220 65 105 86 185 272 214
295 295 295 297 298 292 290 284 276 263 256 248 242 250 239 256 269 244 213 238 235 254 276 289 279 234 205 242 260 245 227 151 171 173 166 160 171 220 196 237 281 239 152 118 217 328 13
293 292 293 294 295 288 282 282 275 259 245 238 233 243 229 245 250 244 225 236 243 235 247 261 315 220 209 247 260 241 251 199 175 167 171 172 164 185 176 219 257 133 97 188 79 352 106
295 293 290 290 292 299 278 278 284 265 250 226 228 238 243 233 253 228 243 247 241 247 263 236 257 296 314 314 42 327 316 169 182 195 203 200 210 175 194 204 129 190 257 205 182 161 116
Wind_Speed_850mb
41 40 31 27 31 33 30 28 33 37 29 28 36 41 43 43 40 40 41 45 47 43 36 28 21 15 12 11 17 17 12 10 13 22 23 25 31 34 27 30 17 31 13 21 19 11 11
41 42 38 31 34 34 33 31 30 26 32 37 36 41 41 47 46 41 42 46 47 49 39 28 22 13 11 15 17 14 10 11 17 24 22 22 21 20 20 11 27 7 37 18 13 17 12
15 17 19 21 25 29 32 32 31 33 35 35 31 33 40 47 48 46 43 45 48 47 35 23 20 15 17 21 16 13 12 13 20 26 22 25 16 16 8 8 4 2 11 24 24 17 9
27 22 18 19 21 23 29 32 40 44 41 36 35 33 36 45 53 46 42 47 50 41 27 17 13 11 13 20 23 15 12 12 20 27 23 24 17 11 1 8 7 11 10 15 15 17 11
36 35 32 28 26 27 26 27 28 36 41 47 50 46 39 45 53 45 44 46 48 29 18 9 10 11 11 11 18 19 17 12 15 21 22 22 17 9 9 9 9 17 12 27 11 17 6
27 28 30 37 37 34 32 31 33 35 37 45 52 53 49 43 56 49 50 43 34 23 10 6 11 8 14 6 15 20 19 23 10 19 16 11 11 12 14 17 13 11 17 12 19 15 17
29 34 30 28 32 39 40 39 38 39 41 42 50 56 58 55 49 47 51 40 21 9 10 23 16 11 7 13 15 17 22 24 14 16 14 13 14 24 28 32 25 12 13 14 6 7 7
31 28 29 33 35 35 39 43 42 40 42 44 47 47 52 56 45 41 37 12 14 20 26 34 35 29 23 19 8 18 26 21 17 19 14 9 24 21 6 7 14 18 19 21 4 7 6
25 26 26 29 29 32 34 34 40 42 45 49 52 56 46 44 40 33 22 16 23 26 14 17 16 14 14 27 11 20 34 12 18 25 27 18 3 8 12 14 18 19 21 10 7 7 16
26 26 29 32 34 34 33 33 36 38 42 45 54 57 57 36 4 9 7 11 22 24 10 10 9 8 12 13 10 21 32 11 8 22 19 21 13 14 12 19 18 19 4 4 4 7 7
29 30 33 33 34 36 40 41 43 38 36 39 44 52 52 18 16 8 9 13 16 8 11 9 6 7 11 15 12 8 22 8 14 14 10 9 16 17 15 4 16 4 8 5 2 6 8
27 29 31 36 36 37 39 42 42 43 42 44 46 46 47 26 16 17 16 11 10 6 18 4 7 11 12 16 10 11 10 5 4 7 2 6 3 4 3 11 2 20 11 6 2 4 7
30 30 31 31 35 35 40 43 45 47 48 48 49 45 42 32 15 10 7 3 4 13 5 6 8 11 17 16 15 16 20 20 14 12 17 7 8 7 10 10 10 9 8 3 5 6 7
32 33 34 32 37 37 40 42 46 48 51 51 46 44 41 32 16 22 5 5 18 5 13 3 3 8 13 17 12 17 13 19 31 11 6 18 13 22 21 6 7 21 6 6 11 8 3
31 37 32 38 34 38 38 40 42 47 52 59 58 39 34 16 16 24 15 16 14 11 8 12 6 6 9 12 6 16 18 13 15 29 15 9 7 4 3 2 4 12 14 6 9 3 4
38 39 35 39 37 39 38 39 40 43 50 57 52 36 21 21 21 23 10 31 12 14 6 8 13 12 10 10 14 18 19 11 12 22 11 4 6 4 7 5 5 6 6 6 4 9 11
39 39 34 36 37 39 36 38 41 43 45 51 38 21 10 22 21 18 21 23 16 40 9 9 7 7 9 11 14 10 6 7 10 12 9 11 11 9 9 19 20 9 7 7 4 5 7
42 38 41 41 39 42 40 39 40 40 42 33 20 9 15 26 10 11 19 9 15 33 18 27 11 13 10 11 11 12 13 8 12 19 17 12 6 12 12 5 5 23 11 17 8 12 5
46 44 44 47 46 43 42 38 37 35 28 29 23 28 24 18 11 18 14 23 33 36 33 8 19 26 17 12 5 12 9 4 13 15 12 13 8 9 5 5 7 13 23 13 4 2 14
46 48 47 48 49 48 46 42 39 37 24 26 13 7 12 11 22 20 28 28 37 41 26 46 23 14 4 12 14 11 9 4 3 5 1 16 8 12 19 8 6 11 25 32 17 9 11
47 49 50 53 51 51 48 47 47 39 35 22 11 10 12 9 15 20 27 20 38 17 20 12 13 15 13 12 11 12 11 7 7 6 3 5 12 18 22 7 3 11 12 30 35 25 20
45 45 45 49 52 53 55 49 42 41 35 38 16 10 15 29 30 35 30 17 24 27 8 23 32 29 24 30 14 4 13 12 9 14 15 5 7 6 8 14 10 15 25 25 34 31 31
48 50 51 52 54 53 56 53 47 44 40 38 24 31 27 28 28 26 30 38 33 33 30 22 12 23 19 13 52 31 19 13 10 17 23 17 13 9 9 2 9 26 44 37 18 16 25
54 53 54 56 57 58 59 57 55 51 50 60 51 32 24 24 25 31 39 43 32 35 37 47 47 22 11 48 55 5 8 6 21 15 20 9 12 10 3 8 13 5 5 24 47 38 40
57 58 58 62 67 70 70 65 63 59 61 62 55 41 31 22 39 43 45 43 55 52 35 38 49 47 44 31 10 9 7 5 9 11 21 12 7 7 8 12 17 16 10 11 17 22 38
57 60 63 66 67 69 69 73 67 63 61 63 58 44 38 31 37 63 39 37 22 18 23 27 41 33 22 8 9 14 17 12 14 12 7 11 5 7 7 9 12 1 3 5 2 16 16
65 68 70 72 79 77 73 71 71 64 62 56 51 55 39 33 51 40 20 22 25 19 13 18 13 7 32 9 14 20 22 3 18 24 15 12 7 18 13 12 12 8 10 22 6 6 4
75 76 78 81 84 82 74 71 71 64 65 58 59 55 45 26 31 21 31 24 28 19 18 12 17 16 10 8 10 14 8 15 9 19 19 22 19 11 8 12 18 14 10 14 1 7 5
85 88 87 87 86 73 60 62 56 58 55 54 62 50 37 35 29 26 38 55 65 60 26 17 18 19 7 5 6 9 10 7 11 11 12 14 11 13 19 15 2 36 3 33 7 7 7
Wind_Direction_850mb
292 307 307 304 307 303 310 316 312 312 303 311 318 320 326 330 332 338 342 343 340 335 322 306 290 278 281 256 256 258 261 231 204 178 178 172 184 199 211 212 200 233 222 240 242 236 251
295 298 310 322 317 311 316 323 312 302 301 296 308 314 314 321 325 332 335 336 333 330 319 299 277 262 247 249 251 255 243 211 186 174 175 179 195 202 235 228 214 313 230 232 226 233 242
345 7 359 345 333 326 314 298 300 305 297 309 298 302 315 321 317 326 327 333 330 325 317 300 259 244 246 256 250 255 228 204 191 180 179 185 186 197 178 175 214 231 222 230 226 220 243
360 349 330 343 340 330 329 302 291 293 296 308 296 298 309 310 311 320 328 332 329 323 315 299 236 239 257 249 234 234 216 194 189 194 191 191 178 150 181 117 162 214 240 226 149 186 187
8 10 7 358 349 342 334 328 321 298 288 287 292 295 300 301 301 315 327 331 324 323 312 285 236 222 255 247 220 221 201 178 169 179 181 176 156 156 147 195 201 207 251 217 170 202 190
3 358 2 359 2 359 349 334 323 325 306 287 283 287 292 296 299 302 326 332 319 316 309 308 233 241 244 230 216 208 194 172 145 144 135 170 181 197 208 198 222 224 223 231 229 178 219
359 359 359 354 351 348 354 355 355 350 345 328 304 294 287 290 295 297 322 343 326 273 285 265 266 249 274 221 196 192 183 174 157 195 196 194 213 207 207 216 257 304 272 254 135 131 255
2 355 356 355 354 349 346 347 347 346 346 348 341 323 295 288 282 293 315 321 324 302 299 278 251 237 232 206 194 211 183 189 194 203 173 176 235 234 99 199 224 243 251 250 103 178 247
347 343 343 342 344 347 350 345 343 344 341 343 346 344 325 299 294 290 291 292 326 333 270 266 229 226 212 206 221 198 188 201 220 207 202 210 80 134 177 181 198 224 237 242 297 220 241
332 339 339 331 335 331 322 331 334 332 336 335 337 340 345 325 352 281 273 300 330 344 282 240 203 198 177 165 224 195 189 205 218 226 207 235 132 176 193 206 206 232 145 179 236 276 273
340 328 332 342 336 332 325 323 315 332 324 330 338 338 344 345 310 319 280 315 343 343 290 103 155 168 171 195 129 172 191 196 230 192 201 167 173 181 205 211 187 112 141 146 211 263 313
336 342 339 341 346 347 343 341 333 326 324 326 323 325 335 334 268 274 261 295 336 222 243 186 148 176 173 201 179 130 161 176 127 179 222 64 358 215 65 88 262 142 136 137 195 256 243
330 330 329 337 346 344 346 345 344 345 335 320 318 316 316 319 263 227 229 262 219 229 334 236 207 190 211 189 189 195 185 186 190 179 207 162 182 147 155 122 130 206 167 208 222 191 249
319 322 317 326 330 334 336 338 338 343 342 338 313 312 318 307 245 225 247 221 220 239 226 136 160 200 208 174 218 193 195 217 217 223 180 196 226 177 176 243 198 186 223 228 236 217 111
313 310 311 315 318 318 325 331 336 335 337 336 335 320 317 315 218 219 193 216 223 189 187 167 103 199 214 225 246 197 216 230 216 199 214 213 198 69 24 107 321 165 210 36 101 92 267
315 315 312 308 315 311 318 323 329 328 334 335 346 327 314 336 210 211 214 228 223 235 167 163 212 191 202 189 196 202 206 207 211 198 229 185 262 205 136 218 126 262 143 147 205 205 234
312 305 302 308 308 308 310 321 324 326 330 334 345 327 306 346 205 238 224 223 240 251 219 222 245 205 224 183 213 204 245 172 191 165 186 174 224 127 158 206 177 162 209 230 298 229 242
306 305 310 299 299 302 307 313 316 319 322 332 335 309 323 325 277 241 244 233 254 279 308 258 260 260 211 192 195 227 231 232 158 153 168 200 235 220 199 77 298 230 235 195 221 186 228
300 297 295 297 299 301 303 305 312 308 320 323 305 294 293 288 255 246 269 266 266 265 270 248 254 239 225 198 225 210 234 105 163 178 179 173 222 229 212 209 185 217 209 227 88 304 203
295 293 296 297 296 296 296 297 300 296 299 312 291 298 291 236 260 286 296 291 265 244 268 255 275 257 241 231 223 211 209 169 157 222 113 139 225 239 228 51 99 201 206 200 203 204 177
303 303 303 303 301 300 295 295 294 288 281 277 237 249 254 279 294 306 314 307 290 302 273 251 218 211 212 248 202 214 192 181 161 178 172 226 244 216 247 246 232 263 226 206 212 224 219
305 304 302 301 301 298 292 293 289 280 279 263 247 248 257 262 275 286 280 288 310 312 287 296 252 262 241 245 260 318 183 189 191 168 171 237 244 204 265 200 200 267 250 217 220 234 252
299 296 301 299 297 292 290 291 285 273 264 257 243 264 259 269 271 268 267 275 277 291 294 268 319 348 306 345 319 284 256 165 166 172 186 175 205 187 251 153 222 268 241 223 205 213 208
299 300 298 298 297 293 289 285 279 276 264 262 250 254 260 265 259 260 265 262 277 278 273 289 297 279 298 321 324 170 138 191 168 183 151 201 192 184 115 169 225 329 298 235 215 229 217
299 301 301 300 298 293 288 283 278 269 262 259 240 235 250 261 260 264 255 262 273 272 271 273 281 271 289 298 291 219 173 173 196 185 175 189 195 166 203 217 316 289 182 175 193 251 229
298 299 299 298 298 296 292 285 278 268 259 257 248 244 249 250 250 256 265 251 255 275 279 248 278 287 258 239 238 245 212 190 189 163 170 157 294 246 169 225 220 65 105 86 185 272 214
295 295 295 297 298 292 290 284 276 263 256 248 242 250 239 256 269 244 213 238 235 254 276 289 279 234 205 242 260 245 227 151 171 173 166 160 171 220 196 237 281 239 152 118 217 328 13
293 292 293 294 295 288 282 282 275 259 245 238 233 243 229 245 250 244 225 236 243 235 247 261 315 220 209 247 260 241 251 199 175 167 171 172 164 185 176 219 257 133 97 188 79 352 106
295 293 290 290 292 299 278 278 284 265 250 226 228 238 243 233 253 228 243 247 241 247 263 236 257 296 314 314 42 327 316 169 182 195 203 200 210 175 194 204 129 190 257 205 182 161 116